| time (UTC) | temp F | wind direction | speed MPH | gust MPH | rain 1hr in | rain 24hr in | rain mn in | humidity % | barometer mb |
| 20260902023507 | 64 | 156 | 0.0 | 0.0 | 0.00 | 0.01 | 0.01 | 96 | 1020.1 |
| 20260902023018 | 64 | 156 | 0.0 | 0.0 | 0.00 | 0.01 | 0.01 | 96 | 1020.1 |
| 20260902022510 | 64 | 156 | 0.0 | 0.0 | 0.00 | 0.01 | 0.01 | 96 | 1020.2 |
| 20260902022011 | 64 | 156 | 0.0 | 0.0 | 0.00 | 0.01 | 0.01 | 96 | 1020.4 |
| 20260902021521 | 64 | 156 | 0.0 | 0.0 | 0.00 | 0.01 | 0.01 | 96 | 1020.3 |
| 20260902021006 | 64 | 156 | 0.0 | 0.0 | 0.00 | 0.01 | 0.01 | 96 | 1020.2 |
| 20260902020504 | 64 | 156 | 0.0 | 0.0 | 0.00 | 0.01 | 0.01 | 96 | 1020.1 |
| 20260902020006 | 64 | 156 | 0.0 | 0.0 | 0.00 | 0.01 | 0.01 | 95 | 1020.1 |
| 20260902015504 | 64 | 156 | 0.0 | 0.0 | 0.00 | 0.01 | 0.01 | 95 | 1019.9 |
| 20260902015005 | 64 | 156 | 0.0 | 0.0 | 0.00 | 0.01 | 0.01 | 95 | 1019.8 |
| 20260902014507 | 64 | 156 | 0.0 | 0.0 | 0.00 | 0.01 | 0.01 | 95 | 1019.9 |
| 20260902014007 | 64 | 156 | 0.0 | 0.0 | 0.00 | 0.01 | 0.01 | 95 | 1020.0 |
| 20260902013506 | 64 | 156 | 0.0 | 0.0 | 0.00 | 0.01 | 0.01 | 95 | 1020.0 |
| 20260902013014 | 64 | 156 | 0.0 | 0.0 | 0.00 | 0.01 | 0.01 | 95 | 1020.0 |
| 20260902012507 | 64 | 156 | 0.0 | 0.0 | 0.00 | 0.01 | 0.01 | 95 | 1020.0 |
| 20260902012009 | 64 | 156 | 0.0 | 0.0 | 0.00 | 0.01 | 0.01 | 95 | 1020.1 |
| 20260902011527 | 64 | 156 | 0.0 | 0.0 | 0.00 | 0.01 | 0.01 | 95 | 1020.0 |
| 20260902011010 | 64 | 156 | 0.0 | 0.0 | 0.00 | 0.01 | 0.01 | 95 | 1020.0 |
| 20260902010511 | 64 | 156 | 0.0 | 0.0 | 0.00 | 0.01 | 0.01 | 95 | 1020.1 |
| 20260902010026 | 64 | 156 | 0.0 | 0.0 | 0.00 | 0.01 | 0.01 | 95 | 1020.1 |
| 20260902005503 | 64 | 156 | 0.0 | 0.0 | 0.00 | 0.01 | 0.01 | 95 | 1020.0 |
| 20260902005005 | 64 | 156 | 0.0 | 0.0 | 0.00 | 0.01 | 0.01 | 95 | 1020.0 |
| 20260902004507 | 64 | 156 | 0.0 | 0.0 | 0.00 | 0.01 | 0.01 | 95 | 1019.9 |
| 20260902004004 | 64 | 156 | 0.0 | 0.0 | 0.00 | 0.01 | 0.01 | 95 | 1019.8 |
| 20260902003506 | 64 | 156 | 0.0 | 0.0 | 0.00 | 0.01 | 0.01 | 95 | 1019.8 |
| 20260902003011 | 64 | 156 | 0.0 | 0.0 | 0.00 | 0.01 | 0.01 | 95 | 1019.7 |
| 20260902002507 | 64 | 156 | 0.0 | 0.0 | 0.00 | 0.01 | 0.01 | 95 | 1019.8 |
| 20260902002008 | 64 | 156 | 0.0 | 0.0 | 0.00 | 0.01 | 0.01 | 95 | 1019.8 |
| 20260902001534 | 64 | 156 | 0.0 | 0.0 | 0.00 | 0.01 | 0.01 | 95 | 1019.6 |
| 20260902001008 | 64 | 156 | 0.0 | 0.0 | 0.00 | 0.01 | 0.01 | 95 | 1019.5 |
| 20260902000510 | 64 | 156 | 0.0 | 0.0 | 0.00 | 0.01 | 0.01 | 95 | 1019.5 |
| 20260902000029 | 64 | 156 | 0.0 | 0.0 | 0.00 | 0.01 | 0.01 | 95 | 1019.5 |
| 20260901235513 | 64 | 156 | 0.0 | 0.0 | 0.00 | 0.01 | 0.01 | 95 | 1019.4 |
| 20260901235013 | 64 | 156 | 0.0 | 0.0 | 0.00 | 0.01 | 0.01 | 95 | 1019.4 |
| 20260901234529 | 64 | 156 | 0.0 | 0.0 | 0.00 | 0.01 | 0.01 | 95 | 1019.4 |
| 20260901234017 | 64 | 156 | 0.0 | 0.0 | 0.00 | 0.01 | 0.01 | 95 | 1019.5 |
| 20260901233504 | 64 | 156 | 0.0 | 0.0 | 0.00 | 0.01 | 0.01 | 95 | 1019.5 |
| 20260901233008 | 64 | 156 | 0.0 | 0.0 | 0.00 | 0.01 | 0.01 | 95 | 1019.6 |
| 20260901232506 | 64 | 156 | 0.0 | 0.0 | 0.00 | 0.01 | 0.01 | 95 | 1019.7 |
| 20260901232007 | 64 | 156 | 0.0 | 0.0 | 0.00 | 0.01 | 0.01 | 95 | 1019.7 |
| 20260901231515 | 64 | 156 | 0.0 | 0.0 | 0.00 | 0.01 | 0.01 | 95 | 1019.7 |
| 20260901231011 | 64 | 156 | 0.0 | 0.0 | 0.00 | 0.01 | 0.01 | 95 | 1019.7 |
| 20260901230511 | 64 | 156 | 0.0 | 0.0 | 0.00 | 0.01 | 0.01 | 94 | 1019.7 |
| 20260901230023 | 64 | 156 | 0.0 | 0.0 | 0.00 | 0.01 | 0.01 | 94 | 1019.5 |
| 20260901225511 | 64 | 156 | 0.0 | 0.0 | 0.00 | 0.01 | 0.01 | 94 | 1019.5 |
| 20260901225014 | 64 | 156 | 0.0 | 0.0 | 0.00 | 0.01 | 0.01 | 94 | 1019.5 |
| 20260901224526 | 64 | 156 | 0.0 | 0.0 | 0.00 | 0.01 | 0.01 | 94 | 1019.5 |
| 20260901224012 | 64 | 156 | 0.0 | 0.0 | 0.00 | 0.01 | 0.01 | 94 | 1019.5 |
| 20260901223512 | 64 | 156 | 0.0 | 0.0 | 0.00 | 0.01 | 0.01 | 93 | 1019.4 |
| 20260901223032 | 64 | 156 | 0.0 | 0.0 | 0.00 | 0.01 | 0.01 | 93 | 1019.4 |
| 20260901222514 | 64 | 156 | 0.0 | 0.0 | 0.00 | 0.01 | 0.01 | 93 | 1019.4 |
| 20260901222014 | 64 | 156 | 0.0 | 0.0 | 0.00 | 0.01 | 0.01 | 93 | 1019.4 |
| 20260901221512 | 64 | 156 | 0.0 | 0.0 | 0.00 | 0.01 | 0.01 | 93 | 1019.4 |
| 20260901221005 | 64 | 156 | 0.0 | 2.0 | 0.00 | 0.01 | 0.01 | 93 | 1019.4 |
| 20260901220505 | 65 | 172 | 0.0 | 3.0 | 0.00 | 0.01 | 0.01 | 93 | 1019.4 |
| 20260901220020 | 65 | 200 | 0.0 | 3.0 | 0.00 | 0.01 | 0.01 | 93 | 1019.3 |
| 20260901215511 | 65 | 200 | 0.0 | 0.0 | 0.00 | 0.01 | 0.01 | 94 | 1019.3 |
| 20260901215011 | 65 | 143 | 0.0 | 0.0 | 0.00 | 0.01 | 0.01 | 93 | 1019.3 |
| 20260901214524 | 65 | 191 | 0.0 | 0.0 | 0.00 | 0.01 | 0.01 | 94 | 1019.2 |
| 20260901214014 | 65 | 192 | 0.0 | 0.0 | 0.00 | 0.01 | 0.01 | 93 | 1019.1 |
| 20260901213515 | 65 | 192 | 0.0 | 8.0 | 0.00 | 0.01 | 0.01 | 93 | 1019.1 |
| 20260901213028 | 65 | 191 | 2.0 | 8.0 | 0.00 | 0.01 | 0.01 | 93 | 1019.0 |
| 20260901212514 | 66 | 195 | 0.0 | 5.0 | 0.00 | 0.01 | 0.01 | 94 | 1018.9 |
| 20260901212018 | 66 | 4 | 0.0 | 0.0 | 0.00 | 0.01 | 0.01 | 94 | 1019.1 |
| 20260901211530 | 66 | 4 | 0.0 | 0.0 | 0.00 | 0.01 | 0.01 | 94 | 1019.0 |
| 20260901211016 | 66 | 4 | 0.0 | 0.0 | 0.00 | 0.01 | 0.01 | 94 | 1018.9 |
| 20260901210519 | 66 | 4 | 0.0 | 3.0 | 0.00 | 0.01 | 0.01 | 95 | 1018.9 |
| 20260901210012 | 66 | 4 | 0.0 | 3.0 | 0.00 | 0.01 | 0.01 | 95 | 1018.8 |
| 20260901205506 | 66 | 4 | 0.0 | 0.0 | 0.00 | 0.01 | 0.01 | 95 | 1018.7 |
| 20260901205008 | 66 | 4 | 0.0 | 0.0 | 0.00 | 0.01 | 0.01 | 95 | 1018.6 |
| 20260901204518 | 66 | 4 | 0.0 | 0.0 | 0.00 | 0.01 | 0.01 | 95 | 1018.5 |
| 20260901204012 | 66 | 4 | 0.0 | 0.0 | 0.00 | 0.01 | 0.01 | 95 | 1018.5 |
| 20260901203510 | 66 | 4 | 0.0 | 0.0 | 0.00 | 0.01 | 0.01 | 95 | 1018.6 |
| 20260901203028 | 66 | 4 | 0.0 | 0.0 | 0.00 | 0.01 | 0.01 | 95 | 1018.5 |
| 20260901202515 | 66 | 4 | 0.0 | 0.0 | 0.00 | 0.01 | 0.01 | 95 | 1018.5 |
| 20260901202013 | 66 | 4 | 0.0 | 0.0 | 0.00 | 0.01 | 0.01 | 95 | 1018.5 |
| 20260901201529 | 66 | 4 | 0.0 | 0.0 | 0.00 | 0.01 | 0.01 | 95 | 1018.4 |
| 20260901201015 | 66 | 4 | 0.0 | 0.0 | 0.00 | 0.01 | 0.01 | 95 | 1018.4 |
| 20260901200514 | 66 | 3 | 0.0 | 0.0 | 0.00 | 0.01 | 0.01 | 95 | 1018.4 |
| 20260901200012 | 66 | 3 | 0.0 | 0.0 | 0.00 | 0.01 | 0.01 | 95 | 1018.5 |
| 20260901195505 | 66 | 4 | 0.0 | 0.0 | 0.00 | 0.01 | 0.01 | 95 | 1018.5 |
| 20260901195007 | 66 | 4 | 0.0 | 0.0 | 0.00 | 0.01 | 0.01 | 95 | 1018.4 |
| 20260901194515 | 66 | 4 | 0.0 | 0.0 | 0.00 | 0.01 | 0.01 | 95 | 1018.5 |
| 20260901194008 | 66 | 1 | 0.0 | 0.0 | 0.00 | 0.01 | 0.01 | 95 | 1018.5 |
| 20260901193512 | 66 | 1 | 0.0 | 0.0 | 0.00 | 0.01 | 0.01 | 95 | 1018.4 |
| 20260901193024 | 66 | 1 | 0.0 | 0.0 | 0.00 | 0.01 | 0.01 | 95 | 1018.5 |
| 20260901192502 | 66 | 1 | 0.0 | 0.0 | 0.00 | 0.01 | 0.01 | 95 | 1018.5 |
| 20260901192002 | 66 | 1 | 0.0 | 0.0 | 0.00 | 0.01 | 0.01 | 95 | 1018.5 |
| 20260901191506 | 66 | 1 | 0.0 | 0.0 | 0.00 | 0.01 | 0.01 | 95 | 1018.6 |
| 20260901191005 | 66 | 1 | 0.0 | 0.0 | 0.00 | 0.01 | 0.01 | 95 | 1018.6 |
| 20260901190506 | 66 | 1 | 0.0 | 0.0 | 0.00 | 0.01 | 0.01 | 95 | 1018.6 |
| 20260901190010 | 66 | 6 | 0.0 | 0.0 | 0.00 | 0.01 | 0.01 | 95 | 1018.6 |
| 20260901185505 | 66 | 6 | 0.0 | 0.0 | 0.00 | 0.01 | 0.01 | 95 | 1018.6 |
| 20260901185003 | 66 | 6 | 0.0 | 0.0 | 0.00 | 0.01 | 0.01 | 95 | 1018.6 |
| 20260901184513 | 66 | 6 | 0.0 | 0.0 | 0.00 | 0.01 | 0.01 | 95 | 1018.6 |
| 20260901184018 | 66 | 25 | 0.0 | 0.0 | 0.00 | 0.01 | 0.01 | 95 | 1018.7 |
| 20260901183509 | 66 | 25 | 0.0 | 0.0 | 0.00 | 0.01 | 0.01 | 95 | 1018.6 |
| 20260901183018 | 66 | 25 | 0.0 | 0.0 | 0.00 | 0.01 | 0.01 | 95 | 1018.7 |
| 20260901182512 | 66 | 353 | 0.0 | 0.0 | 0.00 | 0.01 | 0.01 | 95 | 1018.8 |
| 20260901182012 | 66 | 353 | 0.0 | 0.0 | 0.00 | 0.01 | 0.01 | 95 | 1018.7 |
| 20260901181526 | 66 | 353 | 0.0 | 0.0 | 0.00 | 0.01 | 0.01 | 95 | 1018.7 |
| 20260901181004 | 65 | 353 | 0.0 | 0.0 | 0.00 | 0.01 | 0.01 | 95 | 1018.6 |
| 20260901180504 | 65 | 353 | 0.0 | 0.0 | 0.00 | 0.01 | 0.01 | 95 | 1018.6 |
| 20260901180006 | 65 | 353 | 0.0 | 0.0 | 0.00 | 0.01 | 0.01 | 95 | 1018.5 |
| 20260901175504 | 65 | 353 | 0.0 | 0.0 | 0.00 | 0.01 | 0.01 | 95 | 1018.3 |
| 20260901175004 | 65 | 353 | 0.0 | 0.0 | 0.00 | 0.01 | 0.01 | 95 | 1018.3 |
| 20260901174510 | 65 | 353 | 0.0 | 4.0 | 0.00 | 0.01 | 0.01 | 95 | 1018.2 |
| 20260901174007 | 65 | 342 | 0.0 | 4.0 | 0.00 | 0.01 | 0.01 | 94 | 1018.1 |
| 20260901173507 | 65 | 51 | 0.0 | 1.0 | 0.00 | 0.01 | 0.01 | 94 | 1018.1 |
| 20260901173022 | 65 | 1 | 0.0 | 5.0 | 0.00 | 0.01 | 0.01 | 95 | 1018.1 |
| 20260901172507 | 65 | 30 | 0.0 | 5.0 | 0.00 | 0.01 | 0.01 | 95 | 1018.2 |
| 20260901172013 | 65 | 8 | 0.0 | 0.0 | 0.00 | 0.01 | 0.01 | 95 | 1018.2 |
| 20260901171525 | 65 | 8 | 0.0 | 0.0 | 0.00 | 0.01 | 0.01 | 94 | 1018.2 |
| 20260901171010 | 65 | 8 | 0.0 | 0.0 | 0.00 | 0.01 | 0.01 | 94 | 1018.2 |
| 20260901170512 | 65 | 359 | 0.0 | 0.0 | 0.00 | 0.01 | 0.01 | 95 | 1018.3 |
| 20260901170027 | 64 | 6 | 0.0 | 4.0 | 0.00 | 0.01 | 0.01 | 95 | 1018.3 |
| 20260901165514 | 64 | 6 | 0.0 | 4.0 | 0.00 | 0.01 | 0.01 | 94 | 1018.3 |
| 20260901165005 | 65 | 50 | 0.0 | 3.0 | 0.00 | 0.01 | 0.01 | 94 | 1018.4 |
| 20260901164528 | 65 | 360 | 0.0 | 0.0 | 0.00 | 0.01 | 0.01 | 94 | 1018.4 |
| 20260901164004 | 65 | 360 | 0.0 | 0.0 | 0.00 | 0.01 | 0.01 | 94 | 1018.5 |
| 20260901163506 | 65 | 360 | 0.0 | 2.0 | 0.00 | 0.01 | 0.01 | 94 | 1018.4 |
| 20260901163012 | 65 | 360 | 0.0 | 5.0 | 0.00 | 0.01 | 0.01 | 94 | 1018.5 |
| 20260901162505 | 65 | 1 | 1.0 | 5.0 | 0.00 | 0.01 | 0.01 | 94 | 1018.5 |
| 20260901162012 | 65 | 1 | 0.0 | 1.0 | 0.00 | 0.01 | 0.01 | 94 | 1018.6 |
| 20260901161541 | 65 | 1 | 0.0 | 0.0 | 0.00 | 0.01 | 0.01 | 94 | 1018.6 |
| 20260901161009 | 65 | 360 | 0.0 | 7.0 | 0.00 | 0.01 | 0.01 | 94 | 1018.6 |
| 20260901160514 | 65 | 360 | 0.0 | 7.0 | 0.00 | 0.01 | 0.01 | 94 | 1018.5 |
| 20260901160023 | 65 | 354 | 2.0 | 7.0 | 0.00 | 0.01 | 0.01 | 95 | 1018.5 |
| 20260901155520 | 65 | 343 | 0.0 | 0.0 | 0.00 | 0.01 | 0.01 | 95 | 1018.3 |
| 20260901155012 | 65 | 328 | 0.0 | 0.0 | 0.00 | 0.01 | 0.01 | 95 | 1018.3 |
| 20260901154527 | 65 | 328 | 0.0 | 3.0 | 0.00 | 0.01 | 0.01 | 95 | 1018.2 |
| 20260901154015 | 65 | 327 | 0.0 | 3.0 | 0.00 | 0.01 | 0.01 | 95 | 1018.2 |
| 20260901153508 | 65 | 359 | 0.0 | 3.0 | 0.00 | 0.01 | 0.01 | 95 | 1018.2 |
| 20260901153009 | 65 | 32 | 0.0 | 0.0 | 0.00 | 0.01 | 0.01 | 95 | 1018.2 |
| 20260901152506 | 65 | 32 | 0.0 | 0.0 | 0.00 | 0.01 | 0.01 | 95 | 1018.3 |
| 20260901152005 | 65 | 32 | 0.0 | 0.0 | 0.00 | 0.01 | 0.01 | 95 | 1018.3 |
| 20260901151514 | 65 | 32 | 0.0 | 0.0 | 0.00 | 0.01 | 0.01 | 95 | 1018.4 |
| 20260901151006 | 65 | 359 | 0.0 | 2.0 | 0.00 | 0.01 | 0.01 | 95 | 1018.3 |
| 20260901150508 | 65 | 359 | 0.0 | 3.0 | 0.00 | 0.01 | 0.01 | 94 | 1018.4 |
| 20260901150034 | 65 | 359 | 0.0 | 3.0 | 0.01 | 0.01 | 0.01 | 94 | 1018.5 |
| 20260901145508 | 65 | 359 | 0.0 | 3.0 | 0.01 | 0.01 | 0.01 | 94 | 1018.4 |
| 20260901145010 | 65 | 359 | 0.0 | 3.0 | 0.01 | 0.01 | 0.01 | 95 | 1018.4 |
| 20260901144536 | 65 | 359 | 0.0 | 2.0 | 0.01 | 0.01 | 0.01 | 95 | 1018.2 |
| 20260901144017 | 65 | 359 | 0.0 | 0.0 | 0.01 | 0.01 | 0.01 | 95 | 1018.1 |
| 20260901143514 | 65 | 359 | 0.0 | 0.0 | 0.01 | 0.01 | 0.01 | 95 | 1018.2 |
| 20260901143030 | 65 | 359 | 0.0 | 0.0 | 0.01 | 0.01 | 0.01 | 95 | 1018.3 |
| 20260901142517 | 65 | 359 | 0.0 | 0.0 | 0.01 | 0.01 | 0.01 | 95 | 1018.3 |
| 20260901142016 | 65 | 359 | 0.0 | 0.0 | 0.01 | 0.01 | 0.01 | 95 | 1018.1 |
| 20260901141514 | 65 | 359 | 0.0 | 0.0 | 0.01 | 0.01 | 0.01 | 95 | 1018.2 |
| 20260901141003 | 65 | 359 | 0.0 | 0.0 | 0.01 | 0.01 | 0.01 | 95 | 1018.2 |
| 20260901140504 | 65 | 359 | 0.0 | 0.0 | 0.01 | 0.01 | 0.01 | 95 | 1018.2 |
| 20260901140016 | 65 | 359 | 0.0 | 0.0 | 0.00 | 0.00 | 0.00 | 95 | 1018.1 |
| 20260901135508 | 65 | 359 | 0.0 | 0.0 | 0.00 | 0.00 | 0.00 | 95 | 1018.1 |
| 20260901135009 | 65 | 359 | 0.0 | 0.0 | 0.00 | 0.00 | 0.00 | 94 | 1018.1 |
| 20260901134526 | 65 | 359 | 0.0 | 0.0 | 0.00 | 0.00 | 0.00 | 94 | 1018.0 |
| 20260901134010 | 65 | 359 | 0.0 | 0.0 | 0.00 | 0.00 | 0.00 | 94 | 1018.1 |
| 20260901133511 | 65 | 359 | 0.0 | 0.0 | 0.00 | 0.00 | 0.00 | 94 | 1018.2 |
| 20260901133029 | 65 | 359 | 0.0 | 3.0 | 0.00 | 0.00 | 0.00 | 94 | 1018.4 |
| 20260901132519 | 65 | 349 | 0.0 | 3.0 | 0.00 | 0.00 | 0.00 | 94 | 1018.4 |
| 20260901132016 | 66 | 5 | 0.0 | 5.0 | 0.00 | 0.00 | 0.00 | 94 | 1018.4 |
| 20260901131532 | 66 | 8 | 0.0 | 5.0 | 0.00 | 0.00 | 0.00 | 94 | 1018.5 |
| 20260901131016 | 66 | 12 | 1.0 | 5.0 | 0.00 | 0.00 | 0.00 | 94 | 1018.5 |
| 20260901130517 | 66 | 355 | 0.0 | 0.0 | 0.00 | 0.00 | 0.00 | 94 | 1018.6 |
| 20260901130021 | 66 | 355 | 0.0 | 0.0 | 0.00 | 0.00 | 0.00 | 94 | 1018.4 |
| 20260901125505 | 66 | 355 | 0.0 | 2.0 | 0.00 | 0.00 | 0.00 | 94 | 1018.5 |
| 20260901125007 | 66 | 1 | 0.0 | 4.0 | 0.00 | 0.00 | 0.00 | 94 | 1018.5 |
| 20260901124519 | 66 | 1 | 1.0 | 4.0 | 0.00 | 0.00 | 0.00 | 94 | 1018.4 |
| 20260901124012 | 66 | 181 | 0.0 | 0.0 | 0.00 | 0.00 | 0.00 | 94 | 1018.4 |
| 20260901123510 | 66 | 181 | 0.0 | 0.0 | 0.00 | 0.00 | 0.00 | 94 | 1018.6 |
| 20260901123024 | 66 | 181 | 0.0 | 0.0 | 0.00 | 0.00 | 0.00 | 94 | 1018.7 |
| 20260901122512 | 66 | 181 | 0.0 | 0.0 | 0.00 | 0.00 | 0.00 | 94 | 1018.8 |
| 20260901122012 | 66 | 181 | 0.0 | 0.0 | 0.00 | 0.00 | 0.00 | 93 | 1019.0 |
| 20260901121529 | 66 | 181 | 0.0 | 0.0 | 0.00 | 0.00 | 0.00 | 93 | 1018.9 |
| 20260901121015 | 66 | 181 | 0.0 | 0.0 | 0.00 | 0.00 | 0.00 | 93 | 1018.8 |
| 20260901120517 | 66 | 181 | 0.0 | 0.0 | 0.00 | 0.00 | 0.00 | 93 | 1018.6 |
| 20260901120034 | 66 | 181 | 0.0 | 0.0 | 0.00 | 0.00 | 0.00 | 93 | 1018.7 |
| 20260901115519 | 66 | 181 | 0.0 | 0.0 | 0.00 | 0.00 | 0.00 | 93 | 1018.7 |
| 20260901115020 | 66 | 181 | 0.0 | 0.0 | 0.00 | 0.00 | 0.00 | 93 | 1018.8 |
| 20260901114536 | 66 | 181 | 0.0 | 0.0 | 0.00 | 0.00 | 0.00 | 92 | 1018.7 |
| 20260901114007 | 66 | 181 | 0.0 | 0.0 | 0.00 | 0.00 | 0.00 | 92 | 1018.6 |
| 20260901113508 | 66 | 181 | 0.0 | 0.0 | 0.00 | 0.00 | 0.00 | 92 | 1018.6 |
| 20260901113024 | 66 | 181 | 0.0 | 0.0 | 0.00 | 0.00 | 0.00 | 92 | 1018.6 |
| 20260901112509 | 67 | 181 | 0.0 | 0.0 | 0.00 | 0.00 | 0.00 | 92 | 1018.6 |
| 20260901112014 | 67 | 181 | 0.0 | 0.0 | 0.00 | 0.00 | 0.00 | 91 | 1018.6 |
| 20260901111526 | 67 | 181 | 0.0 | 0.0 | 0.00 | 0.00 | 0.00 | 91 | 1018.6 |
| 20260901111015 | 67 | 181 | 0.0 | 0.0 | 0.00 | 0.00 | 0.00 | 91 | 1018.6 |
| 20260901110513 | 67 | 181 | 0.0 | 0.0 | 0.00 | 0.00 | 0.00 | 91 | 1018.5 |
| 20260901110009 | 67 | 181 | 0.0 | 0.0 | 0.00 | 0.00 | 0.00 | 90 | 1018.5 |
| 20260901105507 | 67 | 181 | 0.0 | 0.0 | 0.00 | 0.00 | 0.00 | 90 | 1018.3 |
| 20260901105004 | 67 | 181 | 0.0 | 0.0 | 0.00 | 0.00 | 0.00 | 89 | 1018.2 |
| 20260901104512 | 67 | 181 | 0.0 | 0.0 | 0.00 | 0.00 | 0.00 | 88 | 1018.3 |
| 20260901104005 | 67 | 181 | 0.0 | 0.0 | 0.00 | 0.00 | 0.00 | 88 | 1018.4 |
| 20260901103502 | 67 | 181 | 0.0 | 0.0 | 0.00 | 0.00 | 0.00 | 87 | 1018.3 |
| 20260901103003 | 67 | 181 | 0.0 | 0.0 | 0.00 | 0.00 | 0.00 | 87 | 1018.2 |
| 20260901102503 | 68 | 181 | 0.0 | 0.0 | 0.00 | 0.00 | 0.00 | 86 | 1018.0 |
| 20260901102003 | 68 | 181 | 0.0 | 0.0 | 0.00 | 0.00 | 0.00 | 86 | 1018.0 |
| 20260901101506 | 68 | 181 | 0.0 | 4.0 | 0.00 | 0.00 | 0.00 | 84 | 1017.9 |
| 20260901101002 | 68 | 181 | 0.0 | 4.0 | 0.00 | 0.00 | 0.00 | 83 | 1017.9 |
| 20260901100503 | 68 | 181 | 0.0 | 3.0 | 0.00 | 0.00 | 0.00 | 82 | 1017.8 |
| 20260901100006 | 68 | 181 | 0.0 | 3.0 | 0.00 | 0.00 | 0.00 | 82 | 1017.8 |
| 20260901095504 | 68 | 181 | 0.0 | 3.0 | 0.00 | 0.00 | 0.00 | 82 | 1017.8 |
| 20260901095007 | 68 | 181 | 0.0 | 1.0 | 0.00 | 0.00 | 0.00 | 82 | 1017.8 |
| 20260901094509 | 68 | 181 | 0.0 | 0.0 | 0.00 | 0.00 | 0.00 | 81 | 1017.7 |
| 20260901094004 | 68 | 181 | 0.0 | 0.0 | 0.00 | 0.00 | 0.00 | 81 | 1017.7 |
| 20260901093503 | 68 | 181 | 0.0 | 0.0 | 0.00 | 0.00 | 0.00 | 81 | 1017.6 |
| 20260901093014 | 68 | 181 | 0.0 | 0.0 | 0.00 | 0.00 | 0.00 | 81 | 1017.7 |
| 20260901092508 | 68 | 181 | 0.0 | 0.0 | 0.00 | 0.00 | 0.00 | 81 | 1017.7 |
| 20260901092003 | 68 | 181 | 0.0 | 0.0 | 0.00 | 0.00 | 0.00 | 81 | 1017.7 |
| 20260901091503 | 68 | 181 | 0.0 | 0.0 | 0.00 | 0.00 | 0.00 | 81 | 1017.6 |
| 20260901091002 | 68 | 181 | 0.0 | 0.0 | 0.00 | 0.00 | 0.00 | 80 | 1017.6 |
| 20260901090503 | 68 | 181 | 0.0 | 0.0 | 0.00 | 0.00 | 0.00 | 80 | 1017.7 |
| 20260901090007 | 68 | 181 | 0.0 | 0.0 | 0.00 | 0.00 | 0.00 | 81 | 1017.7 |
| 20260901085503 | 68 | 181 | 0.0 | 0.0 | 0.00 | 0.00 | 0.00 | 81 | 1017.6 |
| 20260901085013 | 68 | 181 | 0.0 | 0.0 | 0.00 | 0.00 | 0.00 | 80 | 1017.6 |
| 20260901084504 | 68 | 181 | 0.0 | 0.0 | 0.00 | 0.00 | 0.00 | 80 | 1017.6 |
| 20260901084003 | 68 | 181 | 0.0 | 7.0 | 0.00 | 0.00 | 0.00 | 81 | 1017.6 |
| 20260901083505 | 68 | 181 | 0.0 | 7.0 | 0.00 | 0.00 | 0.00 | 81 | 1017.6 |
| 20260901083011 | 68 | 154 | 0.0 | 0.0 | 0.00 | 0.00 | 0.00 | 81 | 1017.6 |
| 20260901082504 | 68 | 154 | 0.0 | 0.0 | 0.00 | 0.00 | 0.00 | 81 | 1017.7 |
| 20260901082012 | 68 | 154 | 0.0 | 0.0 | 0.00 | 0.00 | 0.00 | 82 | 1017.7 |
| 20260901081517 | 68 | 153 | 0.0 | 0.0 | 0.00 | 0.00 | 0.00 | 82 | 1017.7 |
| 20260901081010 | 68 | 153 | 0.0 | 0.0 | 0.00 | 0.00 | 0.00 | 82 | 1017.8 |
| 20260901080513 | 69 | 153 | 0.0 | 0.0 | 0.00 | 0.00 | 0.00 | 81 | 1017.6 |
| 20260901080004 | 69 | 153 | 0.0 | 0.0 | 0.00 | 0.00 | 0.00 | 82 | 1017.6 |
| 20260901075504 | 69 | 153 | 0.0 | 0.0 | 0.00 | 0.00 | 0.00 | 82 | 1017.7 |
| 20260901075007 | 69 | 153 | 0.0 | 0.0 | 0.00 | 0.00 | 0.00 | 82 | 1017.6 |
| 20260901074504 | 69 | 153 | 0.0 | 0.0 | 0.00 | 0.00 | 0.00 | 82 | 1017.7 |
| 20260901074004 | 69 | 153 | 0.0 | 0.0 | 0.00 | 0.00 | 0.00 | 82 | 1017.8 |
| 20260901073504 | 69 | 153 | 0.0 | 0.0 | 0.00 | 0.00 | 0.00 | 81 | 1017.9 |
| 20260901073010 | 69 | 153 | 0.0 | 0.0 | 0.00 | 0.00 | 0.00 | 81 | 1018.0 |
| 20260901072506 | 69 | 153 | 0.0 | 0.0 | 0.00 | 0.00 | 0.00 | 81 | 1018.1 |
| 20260901072005 | 69 | 153 | 0.0 | 0.0 | 0.00 | 0.00 | 0.00 | 81 | 1018.1 |
| 20260901071513 | 69 | 188 | 0.0 | 0.0 | 0.00 | 0.00 | 0.00 | 81 | 1018.0 |
| 20260901071007 | 69 | 188 | 0.0 | 1.0 | 0.00 | 0.00 | 0.00 | 81 | 1018.0 |
| 20260901070510 | 69 | 188 | 0.0 | 1.0 | 0.00 | 0.00 | 0.00 | 81 | 1018.1 |
| 20260901070024 | 69 | 188 | 0.0 | 2.0 | 0.00 | 0.00 | 0.00 | 81 | 1018.1 |
| 20260901065508 | 69 | 188 | 0.0 | 4.0 | 0.00 | 0.00 | 0.00 | 82 | 1018.1 |
| 20260901065013 | 69 | 184 | 0.0 | 4.0 | 0.00 | 0.00 | 0.00 | 82 | 1018.2 |
| 20260901064510 | 69 | 182 | 0.0 | 0.0 | 0.00 | 0.00 | 0.00 | 82 | 1018.3 |
| 20260901064003 | 69 | 181 | 0.0 | 0.0 | 0.00 | 0.00 | 0.00 | 82 | 1018.3 |
| 20260901063504 | 69 | 181 | 0.0 | 0.0 | 0.00 | 0.00 | 0.00 | 82 | 1018.3 |
| 20260901063007 | 69 | 181 | 0.0 | 0.0 | 0.00 | 0.00 | 0.00 | 83 | 1018.2 |
| 20260901062504 | 68 | 181 | 0.0 | 0.0 | 0.00 | 0.00 | 0.00 | 83 | 1018.3 |
| 20260901062004 | 68 | 181 | 0.0 | 0.0 | 0.00 | 0.00 | 0.00 | 83 | 1018.4 |
| 20260901061509 | 68 | 181 | 0.0 | 0.0 | 0.00 | 0.00 | 0.00 | 83 | 1018.3 |
| 20260901061003 | 68 | 145 | 0.0 | 0.0 | 0.00 | 0.00 | 0.00 | 83 | 1018.2 |
| 20260901060509 | 68 | 145 | 0.0 | 0.0 | 0.00 | 0.00 | 0.00 | 83 | 1018.3 |
| 20260901060016 | 68 | 145 | 0.0 | 0.0 | 0.00 | 0.00 | 0.00 | 83 | 1018.4 |
| 20260901055510 | 68 | 145 | 0.0 | 1.0 | 0.00 | 0.00 | 0.00 | 83 | 1018.4 |
| 20260901055015 | 68 | 145 | 0.0 | 1.0 | 0.00 | 0.00 | 0.00 | 83 | 1018.4 |
| 20260901054523 | 68 | 197 | 0.0 | 0.0 | 0.00 | 0.00 | 0.00 | 83 | 1018.4 |
| 20260901054012 | 68 | 197 | 0.0 | 0.0 | 0.00 | 0.00 | 0.00 | 83 | 1018.3 |
| 20260901053511 | 68 | 197 | 0.0 | 0.0 | 0.00 | 0.00 | 0.00 | 83 | 1018.4 |
| 20260901053027 | 68 | 197 | 0.0 | 0.0 | 0.00 | 0.00 | 0.00 | 83 | 1018.4 |
| 20260901052503 | 68 | 197 | 0.0 | 0.0 | 0.00 | 0.00 | 0.00 | 82 | 1018.3 |
| 20260901052004 | 68 | 197 | 0.0 | 0.0 | 0.00 | 0.00 | 0.00 | 82 | 1018.2 |
| 20260901051508 | 68 | 197 | 0.0 | 0.0 | 0.00 | 0.00 | 0.00 | 83 | 1018.4 |
| 20260901051003 | 68 | 197 | 0.0 | 0.0 | 0.00 | 0.00 | 0.00 | 82 | 1018.2 |
| 20260901050507 | 68 | 197 | 0.0 | 0.0 | 0.00 | 0.00 | 0.00 | 81 | 1018.1 |
| 20260901050013 | 68 | 197 | 0.0 | 0.0 | 0.00 | 0.00 | 0.00 | 81 | 1018.1 |
| 20260901045509 | 68 | 197 | 0.0 | 0.0 | 0.00 | 0.00 | 0.00 | 81 | 1018.2 |
| 20260901045010 | 68 | 197 | 0.0 | 0.0 | 0.00 | 0.00 | 0.00 | 80 | 1018.2 |
| 20260901044536 | 68 | 197 | 0.0 | 0.0 | 0.00 | 0.00 | 0.00 | 80 | 1018.2 |
| 20260901044016 | 68 | 197 | 0.0 | 0.0 | 0.00 | 0.00 | 0.00 | 80 | 1018.2 |
| 20260901043514 | 69 | 197 | 0.0 | 0.0 | 0.00 | 0.00 | 0.00 | 80 | 1018.3 |
| 20260901043026 | 69 | 197 | 0.0 | 0.0 | 0.00 | 0.00 | 0.00 | 80 | 1018.2 |
| 20260901042515 | 69 | 197 | 0.0 | 0.0 | 0.00 | 0.00 | 0.00 | 80 | 1018.2 |
| 20260901042013 | 69 | 197 | 0.0 | 0.0 | 0.00 | 0.00 | 0.00 | 79 | 1018.1 |
| 20260901041532 | 69 | 197 | 0.0 | 0.0 | 0.00 | 0.00 | 0.00 | 79 | 1018.3 |
| 20260901041002 | 69 | 197 | 0.0 | 0.0 | 0.00 | 0.00 | 0.00 | 79 | 1018.3 |
| 20260901040503 | 69 | 197 | 0.0 | 0.0 | 0.00 | 0.00 | 0.00 | 79 | 1018.2 |
| 20260901040011 | 69 | 197 | 0.0 | 0.0 | 0.00 | 0.00 | 0.00 | 78 | 1018.2 |
| 20260901035506 | 69 | 197 | 0.0 | 0.0 | 0.00 | 0.00 | 0.00 | 79 | 1018.2 |
| 20260901035008 | 69 | 197 | 0.0 | 0.0 | 0.00 | 0.00 | 0.00 | 79 | 1018.2 |
| 20260901034527 | 69 | 197 | 0.0 | 0.0 | 0.00 | 0.00 | 0.00 | 79 | 1018.3 |
| 20260901034008 | 69 | 197 | 0.0 | 0.0 | 0.00 | 0.00 | 0.00 | 78 | 1018.4 |
| 20260901033510 | 69 | 197 | 0.0 | 0.0 | 0.00 | 0.00 | 0.00 | 77 | 1018.4 |
| 20260901033047 | 69 | 197 | 0.0 | 0.0 | 0.00 | 0.00 | 0.00 | 77 | 1018.4 |
| 20260901032512 | 69 | 197 | 0.0 | 0.0 | 0.00 | 0.00 | 0.00 | 78 | 1018.4 |
| 20260901032014 | 69 | 197 | 0.0 | 0.0 | 0.00 | 0.00 | 0.00 | 79 | 1018.4 |
| 20260901031532 | 69 | 197 | 0.0 | 0.0 | 0.00 | 0.00 | 0.00 | 79 | 1018.4 |
| 20260901031015 | 70 | 197 | 0.0 | 0.0 | 0.00 | 0.00 | 0.00 | 79 | 1018.6 |
| 20260901030514 | 70 | 197 | 0.0 | 0.0 | 0.00 | 0.00 | 0.00 | 79 | 1018.6 |
| 20260901030035 | 70 | 197 | 0.0 | 0.0 | 0.00 | 0.00 | 0.00 | 79 | 1018.5 |
| 20260901025517 | 70 | 197 | 0.0 | 0.0 | 0.00 | 0.00 | 0.00 | 78 | 1018.4 |
| 20260901025007 | 70 | 197 | 0.0 | 0.0 | 0.00 | 0.00 | 0.00 | 77 | 1018.4 |
| 20260901024521 | 70 | 197 | 0.0 | 0.0 | 0.00 | 0.00 | 0.00 | 77 | 1018.4 |
| 20260901024010 | 70 | 197 | 0.0 | 0.0 | 0.00 | 0.00 | 0.00 | 77 | 1018.3 |